GFSGBSN_sfc_rhum_141.txt.gz
RH
74 76 77 78 80 80 84 93 95 95 96 95 93 90 89 86 81 79 79 79 77 72 71 69 68 76 79 52 29 25 54 43 28 19 16 14 16 18 19 16 11 13 12 10 11 11 10
76 79 81 82 78 74 74 81 87 97 96 95 93 93 94 92 86 81 80 79 79 78 73 68 68 79 74 46 16 17 25 16 15 16 14 15 18 17 19 17 20 15 16 16 15 14 12
69 76 79 82 80 79 79 87 87 87 95 94 94 94 93 93 91 88 85 80 79 80 72 67 69 65 53 38 12 16 14 16 15 15 16 16 17 21 22 22 18 17 22 20 14 12 13
71 74 75 80 79 80 83 86 86 88 89 93 95 95 95 94 92 91 84 78 80 75 68 67 74 73 58 19 21 14 17 16 14 13 15 15 18 23 27 21 24 20 22 24 15 12 10
72 73 73 80 82 81 83 83 84 83 85 88 92 95 95 94 94 91 85 80 76 71 80 82 90 72 40 28 18 14 14 15 15 15 18 14 21 24 26 33 35 29 29 23 18 12 12
65 69 70 75 80 83 85 86 86 85 84 84 88 94 96 95 94 91 82 76 73 73 60 52 47 47 34 22 15 14 17 16 19 18 22 26 31 36 35 35 38 29 24 21 18 12 15
66 67 68 69 75 75 75 81 84 84 84 85 87 91 97 95 94 88 81 82 80 86 64 44 35 24 15 20 13 15 15 18 18 23 29 28 41 42 30 25 23 20 21 20 17 13 22
67 68 71 73 74 73 72 75 82 82 82 84 87 90 95 95 92 83 76 89 56 60 72 34 35 32 21 15 18 16 13 22 25 31 27 31 37 26 20 21 22 22 24 25 20 17 19
75 74 69 66 66 68 69 71 82 84 83 84 86 87 96 94 86 80 66 69 53 56 76 54 35 30 26 16 19 18 15 20 23 29 30 34 28 22 23 25 22 20 25 26 27 23 23
74 75 71 63 66 71 72 74 80 85 85 84 85 87 96 90 88 68 63 65 53 69 95 61 50 30 20 18 23 13 13 17 21 25 24 29 19 21 25 24 20 27 20 24 26 34 44
75 76 76 70 68 76 81 81 82 85 85 85 86 85 92 81 75 73 57 56 51 77 97 41 43 24 22 21 20 17 13 19 24 26 29 42 35 36 38 27 21 32 28 31 34 40 48
76 77 75 72 73 78 80 83 83 85 85 85 85 86 91 88 65 58 55 53 75 98 93 48 32 26 25 21 20 16 19 20 22 25 22 28 23 25 27 21 24 24 31 35 37 47 83
78 79 76 74 74 73 73 76 82 84 84 85 85 85 93 78 84 52 50 70 98 98 39 43 35 31 25 28 25 21 25 30 36 44 42 28 27 21 18 34 29 30 45 75 75 83 75
78 80 76 75 76 74 74 77 82 83 84 84 84 86 87 76 57 50 56 96 99 60 53 35 28 30 34 28 28 25 26 34 27 27 28 36 53 23 27 39 38 39 45 68 74 83 73
78 76 76 76 76 75 76 81 84 84 84 84 82 95 96 89 55 48 82 98 72 59 44 42 28 36 34 28 39 30 40 35 28 24 42 37 36 22 26 24 28 48 63 47 57 57 85
75 76 77 76 76 77 81 86 88 86 84 82 98 98 96 82 56 69 97 84 61 50 39 42 50 37 47 33 37 55 44 28 28 22 30 38 49 30 24 20 23 36 35 57 70 90 79
79 77 76 76 77 79 83 86 93 91 90 83 98 99 92 82 73 96 97 85 56 46 47 52 53 45 36 36 32 62 48 33 25 25 23 32 43 37 30 36 31 40 54 57 56 68 84
83 78 76 76 78 82 80 80 85 96 95 95 97 100 97 86 98 96 97 63 56 49 45 46 62 57 49 37 35 44 43 38 30 30 30 42 49 52 30 24 23 35 53 50 83 70 80
83 78 76 76 79 80 79 81 83 87 89 98 98 100 95 81 96 98 81 69 55 50 50 56 50 42 41 44 50 43 41 37 35 31 46 43 60 76 52 36 31 39 42 42 57 64 77
82 79 78 76 82 78 81 81 85 88 88 97 99 99 100 98 93 75 81 75 68 53 47 41 42 40 45 50 48 49 45 42 38 45 58 54 55 72 80 76 66 62 44 44 53 85 90
81 80 79 77 83 84 85 82 85 88 91 98 100 99 90 98 99 80 66 74 67 59 44 43 50 46 53 64 60 56 48 41 37 50 49 59 71 55 45 45 53 56 49 58 62 64 79
81 80 80 81 79 81 89 87 87 89 91 98 100 97 81 80 96 85 75 76 66 58 42 44 49 43 47 60 57 48 52 48 47 50 54 53 72 56 51 37 64 62 47 53 57 60 75
81 80 80 81 81 78 87 87 87 88 91 99 98 80 73 76 87 95 82 70 68 49 44 33 39 45 46 40 32 38 41 39 40 55 62 65 75 62 64 56 74 82 78 74 74 74 78
82 81 78 79 80 80 76 84 88 89 91 100 98 98 93 90 84 90 72 61 56 48 54 42 37 49 47 34 35 37 34 34 44 45 51 66 68 66 90 75 86 81 75 73 87 87 92
83 78 77 75 80 80 80 83 89 87 87 99 98 98 97 89 78 76 63 62 57 49 48 47 42 45 46 46 57 63 64 59 54 46 51 50 61 78 96 91 83 70 66 77 79 89 78
82 78 76 77 79 80 82 85 86 88 84 97 98 96 97 98 95 74 74 73 84 66 72 65 54 54 46 63 78 70 83 67 67 55 43 47 58 76 78 78 93 78 56 52 60 96 62
83 82 81 80 81 82 81 85 86 84 85 94 96 93 98 99 81 75 85 87 55 81 95 71 64 59 58 79 77 74 70 45 69 76 72 74 79 82 86 89 79 53 54 56 88 89 70
84 84 84 84 83 83 82 84 83 85 86 93 97 95 97 95 82 59 56 62 63 69 84 74 73 72 81 83 78 75 76 58 66 66 75 81 85 90 83 86 96 54 59 77 86 77 74
87 86 85 85 84 84 81 84 85 86 86 82 98 96 96 88 86 67 66 61 63 50 63 70 65 62 74 89 83 77 88 83 77 91 60 82 72 91 91 96 80 73 85 75 70 72 63

GFSGBSN_sfc_rhum_144.txt.gz
RH
77 78 79 80 83 81 86 94 95 95 94 94 93 92 90 89 87 82 80 81 79 74 72 70 66 74 78 49 38 24 54 47 31 21 20 16 19 22 25 21 18 14 14 16 14 16 16
78 80 83 82 81 75 74 80 87 94 96 95 95 94 92 91 89 88 85 81 80 79 73 69 65 75 64 38 22 21 26 22 23 20 17 18 23 22 22 23 26 21 21 20 19 17 17
70 77 80 84 83 79 78 84 87 86 88 97 96 95 92 93 94 89 87 86 80 79 72 66 67 65 62 29 18 18 19 18 18 18 19 20 22 22 25 24 23 20 19 17 15 17 16
71 73 75 81 85 82 81 83 84 85 87 88 96 95 94 94 93 93 91 87 80 74 70 72 79 78 41 28 28 18 20 20 16 17 19 19 20 27 30 23 26 27 23 25 17 16 16
72 71 72 79 84 82 82 83 83 82 82 83 86 93 96 96 96 95 90 80 77 67 74 80 86 69 44 32 21 15 17 18 18 19 20 14 24 28 32 35 36 34 33 27 18 13 14
64 67 70 73 79 81 84 85 85 84 84 84 84 87 95 96 96 94 84 74 69 69 55 56 51 54 40 33 20 16 17 18 21 24 24 29 34 39 41 36 36 32 29 26 21 15 18
66 62 69 68 74 72 72 78 83 84 83 84 86 87 91 97 96 89 84 81 78 84 64 52 45 32 23 23 15 17 17 18 22 27 33 34 47 50 37 33 28 23 23 22 20 17 20
68 67 67 67 64 70 70 70 80 84 82 82 86 87 89 97 93 83 78 84 59 62 86 52 55 55 36 29 26 18 17 22 27 30 32 35 46 32 30 28 23 24 28 28 23 20 20
72 72 72 62 62 63 65 68 77 81 83 83 84 84 90 95 86 77 70 72 51 64 74 60 49 46 38 31 36 21 18 23 27 32 32 40 31 27 29 30 29 27 28 28 26 26 27
74 72 72 63 60 63 67 69 68 81 86 85 82 83 96 88 88 67 66 60 57 70 98 71 63 51 34 24 29 16 14 20 24 28 30 39 26 25 30 29 25 32 23 28 28 35 37
76 76 77 74 68 74 76 76 76 78 86 89 85 86 90 83 82 77 66 65 55 76 100 43 51 35 30 30 26 20 14 19 26 26 33 39 39 39 39 30 23 33 31 34 36 43 47
78 78 78 77 76 76 74 75 76 73 81 85 86 88 92 86 70 64 55 59 73 98 95 50 38 36 36 30 25 20 20 20 21 26 26 32 26 30 30 25 26 28 34 38 43 51 83
78 79 79 76 75 73 73 71 70 75 77 80 84 87 92 87 89 58 55 69 98 97 42 45 40 34 34 35 30 27 24 27 34 46 46 32 28 25 21 32 34 32 48 80 78 87 74
79 81 81 77 75 74 74 74 76 77 76 82 83 86 90 79 74 56 60 95 99 60 53 43 38 38 39 31 32 29 30 30 32 35 38 39 55 31 25 38 36 39 49 74 69 80 76
80 80 81 77 75 74 74 74 78 80 83 83 84 98 98 94 82 62 83 97 81 62 47 42 37 44 41 33 42 36 43 31 29 30 45 48 42 26 23 29 29 44 62 47 63 68 85
79 81 82 79 76 75 70 80 76 78 87 85 97 97 89 83 86 84 97 77 75 47 43 46 58 41 52 39 42 61 47 34 29 28 28 40 52 31 27 22 25 40 40 59 76 86 84
81 82 80 78 76 72 73 79 79 81 87 88 97 99 90 87 91 98 98 81 54 39 42 59 58 65 47 44 35 61 44 37 28 30 27 29 48 45 31 36 29 36 52 58 65 75 82
83 84 82 78 76 78 77 80 81 83 95 92 94 100 94 91 99 96 95 67 56 54 44 50 63 65 58 59 42 39 46 39 32 30 34 39 53 54 33 27 26 35 52 58 81 71 87
84 86 82 78 77 81 79 79 83 83 87 97 99 98 95 82 97 96 75 75 59 56 52 51 62 64 67 63 70 42 46 44 34 34 48 45 67 74 55 38 36 45 45 53 65 71 75
85 86 82 79 77 80 80 78 83 86 85 96 99 99 100 97 84 71 84 86 82 58 56 52 53 60 65 74 62 68 56 47 51 52 60 49 60 71 67 66 58 64 49 51 60 86 89
85 86 84 80 78 82 82 82 84 87 86 95 100 100 95 98 99 76 71 72 79 76 56 52 56 63 64 69 58 58 55 49 50 55 55 62 74 68 51 53 61 61 55 57 62 68 77
84 86 85 81 79 81 87 84 85 85 89 97 100 100 98 99 96 98 82 74 75 66 59 68 63 56 56 64 55 68 56 52 55 51 63 56 76 67 54 50 59 58 60 58 64 69 87
86 86 85 82 80 79 86 86 87 86 89 99 98 96 92 98 100 99 95 71 69 64 60 46 51 54 60 58 54 44 45 49 54 62 71 69 76 68 63 60 69 81 77 69 75 77 80
86 84 82 82 81 80 80 88 83 88 89 99 98 99 98 98 97 97 84 70 65 60 60 46 45 49 49 40 41 43 41 41 47 47 47 71 72 74 92 73 88 77 78 73 86 89 87
87 85 82 79 80 80 80 82 85 88 87 100 99 99 97 98 85 81 74 68 72 66 57 55 50 45 46 46 58 76 78 66 59 45 56 60 71 92 96 92 88 77 71 79 76 88 82
88 86 81 78 81 83 84 85 88 88 89 98 99 97 99 96 87 60 73 64 78 74 75 64 57 50 52 66 77 91 92 77 74 65 48 56 68 75 87 92 92 79 66 59 60 92 75
87 84 82 81 83 83 82 83 83 90 89 97 97 94 99 100 91 78 79 74 67 81 81 73 61 58 55 79 81 74 73 57 77 82 78 78 83 82 86 89 81 62 60 53 74 80 78
87 85 84 85 85 84 83 84 84 86 89 94 96 95 99 98 91 78 70 77 75 72 80 73 78 76 86 78 70 76 80 66 70 68 74 78 84 91 86 90 91 58 61 70 82 86 78
88 86 86 86 86 86 85 86 82 84 86 88 98 94 97 96 95 74 71 64 60 59 65 74 72 71 71 84 84 78 88 89 78 87 66 84 71 91 87 91 84 82 82 80 75 78 78

GFSGBSN_sfc_rhum_150.txt.gz
RH
90 84 82 89 88 90 95 97 96 95 95 96 95 94 92 91 90 89 86 82 82 79 75 70 71 82 58 21 18 27 57 41 23 20 20 22 23 27 26 28 24 21 23 22 22 22 19
83 83 83 82 82 79 82 85 87 90 95 98 97 95 94 94 92 91 89 85 84 83 79 70 77 80 35 43 22 22 24 22 20 20 21 22 25 26 26 28 28 28 27 24 21 22 20
76 78 82 86 85 81 79 82 83 85 88 89 96 97 96 95 95 93 91 87 87 82 76 70 79 70 38 31 28 24 22 23 20 20 22 24 25 22 30 27 27 29 24 21 20 20 22
77 76 78 82 85 82 81 82 82 82 84 85 88 93 98 97 96 95 94 91 84 81 80 73 74 66 33 23 34 27 23 22 21 20 21 24 22 26 30 30 30 33 28 24 22 19 18
77 75 76 80 82 85 82 81 80 80 80 80 79 83 89 97 96 97 96 90 85 85 81 78 72 54 53 40 31 23 21 21 21 23 22 17 26 31 32 35 28 35 31 33 23 17 21
75 75 77 79 81 85 85 83 83 83 82 82 82 85 89 90 97 98 94 88 85 81 63 62 57 62 49 41 27 19 24 22 23 26 23 29 42 45 46 30 20 31 40 49 26 21 52
73 72 73 77 76 76 75 80 84 85 80 82 81 84 88 93 98 94 92 94 90 88 73 71 65 52 34 36 30 19 21 21 24 25 30 38 42 39 37 36 35 35 33 32 27 22 54
73 70 69 71 74 72 73 76 80 83 77 80 81 85 90 85 94 90 82 95 80 76 92 70 60 52 44 40 44 31 21 25 33 32 35 36 44 32 35 39 39 41 39 34 28 26 50
75 74 72 74 71 68 75 73 76 79 81 81 81 86 94 93 91 88 79 88 57 59 88 74 70 67 61 49 57 42 21 25 28 34 34 35 24 32 37 44 42 44 34 34 30 34 64
78 80 78 72 72 73 69 70 73 76 78 81 82 92 93 92 84 86 88 75 70 77 95 65 68 62 58 55 65 37 21 22 30 30 32 39 28 27 41 40 39 48 30 27 30 38 44
78 78 78 79 77 76 77 75 74 72 80 84 84 94 93 81 86 90 76 72 73 75 47 40 64 46 47 58 43 51 25 27 31 30 35 44 41 46 42 33 34 41 31 30 36 42 52
78 78 78 78 76 80 77 78 79 81 80 88 87 93 83 83 88 83 76 69 80 78 53 51 53 60 57 51 45 26 31 23 27 30 32 38 30 31 34 31 29 31 40 50 56 54 75
78 80 76 77 80 81 76 78 78 77 79 80 89 92 87 78 85 75 74 80 88 76 38 43 54 49 56 57 56 32 34 32 35 42 45 35 30 29 29 38 37 37 40 63 72 76 58
76 78 76 78 82 82 77 76 76 76 73 80 88 92 89 83 89 74 80 88 88 50 60 44 48 45 56 44 45 46 35 40 33 38 47 48 55 32 30 34 41 43 40 54 67 82 76
76 77 76 80 83 82 79 78 79 77 76 79 88 98 97 91 87 77 90 99 65 61 49 47 33 41 52 42 50 48 52 42 35 33 45 54 50 34 31 34 29 47 52 39 64 72 84
78 79 81 81 84 84 82 79 77 77 78 79 93 93 93 88 88 91 97 78 72 54 51 45 33 40 52 50 46 65 50 42 39 31 34 43 57 39 33 32 33 38 41 57 75 84 85
76 79 78 81 86 85 82 76 79 73 74 83 94 96 85 94 90 98 92 84 65 50 48 49 61 60 58 55 48 62 50 42 38 35 30 31 50 47 35 46 41 45 54 62 61 73 78
77 78 78 82 86 85 82 78 80 78 82 88 97 98 90 90 99 95 87 73 64 58 52 55 65 64 68 72 76 56 56 43 40 40 40 38 52 53 39 28 33 31 50 63 70 76 84
78 79 79 84 87 85 80 80 83 82 85 99 98 98 97 84 97 87 69 66 65 67 60 60 60 64 62 68 77 73 59 47 44 45 48 50 78 66 58 47 38 45 48 58 67 72 85
82 81 81 85 87 85 82 84 84 85 86 96 99 99 100 99 84 77 71 71 70 64 67 61 64 57 65 66 59 70 71 50 51 48 72 58 74 79 77 72 70 60 57 60 68 76 78
80 80 82 86 87 84 85 83 84 86 89 97 100 97 90 99 98 92 74 77 76 76 62 66 70 69 74 74 70 86 74 61 55 67 65 64 80 75 64 51 63 78 65 59 72 60 61
81 82 83 87 86 85 85 84 85 87 88 98 100 100 99 97 83 93 85 79 77 66 66 66 70 60 60 73 64 67 72 76 71 60 70 74 89 83 73 58 59 79 67 58 53 64 80
82 82 84 87 86 86 86 85 86 88 89 99 99 95 97 98 100 99 88 82 77 70 68 55 62 71 82 69 56 66 68 67 68 69 77 80 88 92 87 65 94 96 87 77 65 73 76
82 83 85 85 86 86 85 85 87 88 88 96 98 97 100 96 98 93 88 82 86 79 82 72 68 79 74 54 69 74 77 69 69 71 74 91 95 99 96 89 96 75 79 74 77 83 86
82 82 84 86 86 85 84 84 87 88 87 98 98 99 96 96 90 89 84 84 76 77 84 74 67 65 57 70 84 93 98 86 78 74 82 83 95 98 97 96 84 83 76 78 72 75 82
84 84 86 87 87 85 85 87 88 88 84 97 98 96 99 98 91 73 76 79 92 96 96 94 68 65 68 93 98 98 95 90 93 82 74 86 92 98 97 94 95 75 72 62 60 81 80
84 84 86 87 87 86 86 86 89 86 83 93 98 90 99 100 87 83 91 92 90 94 98 87 78 74 76 100 98 97 92 79 91 92 96 98 99 96 90 96 77 64 66 59 77 80 80
84 86 88 88 88 87 86 86 87 86 85 92 97 96 97 99 84 79 77 80 86 84 97 83 80 85 95 98 96 97 94 86 89 75 88 88 93 92 84 91 86 65 59 68 80 88 81
86 87 89 89 87 88 87 87 87 85 85 92 99 96 95 99 96 89 84 72 64 64 82 82 78 81 88 92 94 84 90 89 83 96 67 87 74 86 79 82 84 83 79 81 80 85 83

GFSGBSN_sfc_rhum_153.txt.gz
RH
96 92 91 94 92 93 95 97 96 96 95 95 95 94 93 91 90 90 86 85 84 83 78 73 79 81 39 31 25 20 46 36 17 15 17 17 19 18 16 17 17 14 14 16 15 16 32
96 96 93 91 89 88 88 92 93 95 97 97 97 96 95 93 93 92 88 86 86 85 81 76 73 77 20 60 19 20 19 16 14 15 17 18 18 18 20 19 16 19 19 17 16 15 32
81 81 84 85 85 84 82 82 82 86 87 89 95 97 96 95 95 93 91 88 88 86 82 82 75 55 29 51 22 25 17 17 15 15 16 17 18 17 20 17 20 21 18 16 15 15 33
84 82 80 85 87 83 80 78 80 81 83 83 87 89 97 97 96 95 95 91 90 85 86 82 77 46 53 23 23 26 17 16 16 15 16 18 19 21 20 21 22 21 21 13 15 17 25
81 84 81 82 82 87 82 80 80 79 79 79 80 83 87 94 97 96 96 93 90 87 86 80 58 45 61 39 27 18 17 17 16 17 20 19 22 28 24 20 14 24 14 22 17 21 23
76 76 77 81 83 82 85 82 82 81 81 80 83 84 86 90 93 97 96 90 88 80 62 60 49 59 48 39 26 18 18 17 19 20 21 27 33 31 31 16 16 14 22 26 20 15 28
77 76 77 78 80 78 80 81 82 83 82 80 80 82 86 93 94 96 93 86 82 79 62 66 62 57 40 28 28 16 17 18 18 22 25 33 27 24 25 28 27 25 25 22 18 20 33
79 78 75 74 75 75 74 73 82 81 84 79 79 83 90 85 93 91 82 88 73 68 82 65 66 57 44 36 54 26 18 21 24 26 26 26 30 24 28 31 32 31 32 28 23 28 28
80 77 75 73 74 75 72 78 80 79 78 80 78 86 90 85 91 87 75 83 54 56 83 70 65 66 57 49 60 52 20 22 24 29 28 32 25 29 29 33 35 35 34 30 24 35 48
77 78 77 77 77 74 77 78 76 78 79 82 79 88 93 93 84 80 85 64 62 69 77 46 59 54 57 53 58 42 19 21 26 29 29 31 25 24 30 31 30 36 30 28 24 26 29
79 80 78 80 78 80 79 77 78 76 79 82 82 89 93 79 82 82 70 66 69 62 47 37 57 42 50 55 35 34 22 22 36 30 34 49 33 35 32 25 31 33 31 29 26 29 34
80 80 79 78 80 80 80 80 80 77 81 84 81 92 83 81 83 75 68 67 72 71 42 49 54 56 60 50 46 27 27 21 23 30 29 32 25 29 29 28 26 30 36 41 43 38 45
81 80 80 79 82 80 80 79 82 81 81 87 83 92 85 76 80 72 72 74 72 51 32 38 52 49 51 52 52 29 38 33 42 44 45 32 29 23 26 29 30 29 33 42 48 50 41
82 80 80 82 81 82 82 80 81 80 83 84 89 90 88 83 74 75 71 82 60 34 45 41 41 42 53 43 43 46 34 41 31 31 35 40 47 30 26 31 31 35 32 39 52 52 42
79 80 80 81 80 82 82 82 79 78 80 87 90 96 94 93 79 76 84 96 44 40 41 40 26 30 39 38 48 41 46 37 33 32 46 43 42 29 27 27 24 37 45 29 48 58 61
82 80 80 81 82 83 84 84 80 78 80 87 96 92 91 93 83 88 93 81 65 50 45 38 15 27 34 40 39 68 44 39 37 30 31 38 47 31 28 28 27 30 31 44 61 90 71
81 78 81 81 80 84 85 84 83 79 80 81 92 94 83 89 89 95 93 77 61 49 44 41 47 35 43 43 42 49 43 38 34 31 31 32 44 40 34 36 34 38 38 44 44 50 61
81 78 78 80 82 85 86 84 83 79 81 81 96 96 85 89 99 96 85 71 66 53 46 48 52 55 61 61 58 48 47 38 36 34 36 36 47 47 41 28 27 29 36 41 59 70 64
81 78 79 80 84 85 86 82 80 78 81 97 94 97 92 89 94 86 65 60 62 63 57 55 55 57 57 59 50 65 57 47 44 40 43 40 57 69 55 42 33 36 32 42 57 57 76
81 79 78 81 84 86 84 83 82 79 84 95 98 99 100 99 83 65 70 66 71 61 63 58 59 58 57 57 56 58 53 43 50 47 58 58 56 65 73 60 56 54 39 44 57 94 92
81 80 80 83 85 86 82 83 84 80 83 95 98 96 84 97 98 92 69 68 65 71 60 63 70 64 60 65 61 63 55 61 55 54 58 58 58 60 50 47 51 52 52 49 77 82 93
79 80 81 83 85 85 82 83 85 82 84 98 100 100 94 87 71 80 77 70 75 65 63 69 69 58 64 72 67 59 58 61 59 54 61 65 65 65 66 51 63 90 57 53 62 78 92
80 81 82 84 86 85 84 84 85 86 86 99 98 92 92 86 92 86 82 75 71 68 66 56 57 63 71 75 60 58 56 56 53 61 67 72 75 93 82 64 97 97 86 75 64 57 68
82 80 84 86 86 85 85 84 85 89 86 96 98 97 99 94 96 86 76 71 77 71 75 65 64 74 67 55 58 62 61 69 66 63 59 75 79 95 87 90 96 72 69 68 82 71 80
80 81 83 86 87 86 86 85 86 88 88 96 98 98 99 99 88 81 88 83 80 78 88 92 85 62 62 78 98 95 83 77 64 68 68 63 73 94 89 77 71 60 68 70 67 64 68
90 86 81 86 87 86 86 86 87 88 87 96 97 94 97 100 93 66 77 76 87 86 84 78 71 74 79 99 99 92 76 72 88 86 68 79 72 82 90 89 80 64 63 54 50 73 69
90 89 88 84 87 86 87 86 85 88 86 93 98 92 96 100 85 86 95 90 80 94 99 84 84 83 87 99 97 87 72 74 86 85 92 98 99 92 85 92 78 54 60 54 70 86 73
90 83 82 87 87 87 87 86 88 88 86 93 96 94 93 100 88 77 76 79 77 92 99 80 91 86 98 99 92 92 83 79 82 71 82 82 90 92 94 92 84 61 56 63 80 77 71
85 86 86 88 88 88 87 87 88 87 86 86 96 96 91 99 97 87 80 71 72 71 91 89 81 79 80 85 86 80 82 85 79 85 70 91 74 75 66 72 76 72 70 67 67 69 71